Notices

What's New in latest Release from April 7th, 2021:

- Updated Glossary, including Speed of Maximum Gust, and Total Hourly Precipitation

- Updated national and regional climate services offices contacts and prices information

- Addition of station inventory lists for 1981-2010, 1971-2000, and 1961-1990 Normals.

If you haven't already, please take our survey and provide feedback about our website: https://eccc.sondage-survey.ca/f/LanguageSelection.aspx?s=442ca660-fcf1-47c0-95a9-59707d6fd709

Hourly Data Report for December 02, 2020

MUSKOKA
ONTARIO
Current Station Operator: NAVCAN

44°58'29.000" N
79°18'12.000" W
281.90 m
6115529
71532
YQA

Download Data

Hourly Data (December 2020)
Hourly Data Report for December 2, 2020
TIME
LST
Temp Definition
°C
Dew Point Definition
°C
Rel Hum Definition
%
Precip. Amount Definition
mm

Wind Dir Definition
10's deg

Wind Spd Definition
km/h
Visibility Definition
km
Stn Press Definition
kPa
Hmdx Definition


Wind Chill Definition


Weather Definition


00:00 -3.5 -5.7 85 LegendMM 33 22 12.9 96.92   -10 Snow
01:00 -3.4 -4.7 91 LegendMM 32 22 3.6 96.97   -10 Snow
02:00 -3.4 -5.3 87 LegendMM 32 21 16.1 97.03   -10 Snow
03:00 -3.6 -5.0 90 LegendMM 32 21 2.8 97.08   -10 Snow
04:00 -3.5 -5.4 87 LegendMM 32 24 16.1 97.15   -10 Snow
05:00 -3.7 -5.9 85 LegendMM 31 22 16.1 97.23   -10 LegendNANA
06:00 -4.2 -6.5 84 LegendMM 31 26 16.1 97.33   -11 LegendNANA
07:00 -4.7 -7.0 84 LegendMM 31 21 16.1 97.42   -11 LegendNANA
08:00 -5.4 -8.2 81 LegendMM 31 24 16.1 97.52   -13 LegendNANA
09:00 -5.3 -9.6 72 LegendMM 31 24 16.1 97.62   -13 LegendNANA
10:00 -4.8 -10.2 66 LegendMM 32 26 16.1 97.67   -12 LegendNANA
11:00 -3.7 -9.9 63 LegendMM 31 22 16.1 97.71   -10 LegendNANA
12:00 -2.9 -10.0 58 LegendMM 31 21 16.1 97.76   -9 LegendNANA
13:00 -1.8 -10.2 53 LegendMM 30 17 16.1 97.82   -7 LegendNANA
14:00 -0.3 -10.3 47 LegendMM 29 22 16.1 97.84   -6 LegendNANA
15:00 0.4 -8.7 51 LegendMM 30 21 16.1 97.90     LegendNANA
16:00 0.5 -7.7 54 LegendMM 29 18 16.1 97.94     LegendNANA
17:00 0.1 -6.6 61 LegendMM 28 11 16.1 97.97     LegendNANA
18:00 0.4 -5.2 66 LegendMM 29 13 16.1 98.03     LegendNANA
19:00 -0.1 -5.1 69 LegendMM 27 13 16.1 98.06   -4 LegendNANA
20:00 0.5 -2.1 83 LegendMM 26 11 16.1 98.05     LegendNANA
21:00 1.0 -1.4 84 LegendMM 26 8 16.1 98.04     LegendNANA
22:00 0.7 -1.5 85 LegendMM 23 9 16.1 98.01     LegendNANA
23:00 0.3 -1.5 88 LegendMM 19 11 16.1 97.97     LegendNANA

Notes on Data Quality.

Legend

  • E = Estimated
  • M = Missing
  • NA = Not Available*
  • [empty] = Indicates an unobserved value
Date modified: